Theta_e
317 317 319 320 322 325 327 328 326 323 321 315 315 317 316 319 318 318 318 319 321 320 319 319 321 321 322 322 324 328 329 330 335 338 341 340 338 340 340 340 342 342 343 340 338 339 338 337 336 337 338 339 340 339 339 339 338 338 337 332 326 327 327 326 328 330 329 329 330 327 323 323 327 326 322 326 329 329 331 330 330 330 330 330 331 331 332 330 327 325 324 325 326 325 325 326 324
317 319 322 323 324 327 330 329 323 317 316 314 314 316 316 319 319 319 320 321 321 320 320 321 322 321 320 321 320 328 332 331 335 338 338 337 337 338 338 339 341 342 342 339 338 338 338 337 336 337 337 338 339 339 339 339 339 338 338 335 330 328 328 328 329 330 331 330 331 327 320 320 324 325 323 327 331 330 330 330 330 330 329 330 332 333 333 329 327 326 325 324 326 326 324 325 325
318 320 324 326 326 327 329 326 320 314 313 313 313 315 317 318 320 321 322 321 320 321 321 320 321 320 322 321 319 327 332 330 333 334 334 336 336 336 337 339 341 342 342 341 340 339 338 336 336 337 337 338 339 339 339 339 339 338 338 337 332 330 330 329 329 330 330 330 331 326 320 319 320 321 322 327 331 330 330 329 329 329 329 329 330 331 331 330 330 328 324 324 325 325 324 323 325
318 320 324 326 329 329 329 326 321 315 312 312 312 315 319 320 322 321 321 321 321 321 320 321 320 319 322 322 321 326 330 330 333 335 335 336 336 336 338 339 341 342 341 342 342 340 338 335 335 337 337 337 338 338 338 338 338 338 338 337 334 331 331 331 330 330 330 329 328 324 319 319 318 318 322 327 329 330 329 328 329 329 329 330 329 329 330 331 331 327 323 323 325 325 323 322 323
319 321 324 325 331 329 325 323 320 317 314 314 312 316 320 321 322 320 320 319 319 320 319 321 320 319 321 324 325 326 328 332 336 338 337 336 337 336 337 340 341 342 342 342 342 339 337 335 334 335 336 336 337 338 338 338 338 338 338 337 335 332 331 331 330 330 330 329 326 322 319 318 317 316 321 327 328 329 329 328 329 329 329 332 331 331 332 330 328 325 323 323 324 324 324 322 322
322 324 325 325 329 325 322 319 315 315 316 317 315 317 320 320 321 319 319 318 318 319 318 321 319 320 322 325 327 328 329 331 335 338 337 336 336 335 337 341 342 342 342 341 341 338 336 336 333 334 336 337 337 337 338 338 338 338 337 337 335 333 332 332 331 330 330 330 326 322 320 318 316 314 317 325 328 328 329 328 329 329 330 332 332 331 331 329 327 325 323 323 323 323 324 323 322
323 325 327 327 327 324 324 319 315 316 315 318 317 317 320 319 321 319 319 317 318 318 317 320 319 321 322 324 326 327 331 333 335 336 336 335 334 335 338 340 341 342 341 341 341 338 336 336 334 334 335 336 336 337 338 338 338 337 337 337 336 334 332 332 331 330 331 330 326 322 320 318 317 314 314 322 327 328 328 328 328 329 331 332 331 330 329 328 326 323 321 321 322 322 322 323 323
322 326 329 328 328 324 323 319 316 317 316 318 317 318 319 318 320 318 319 318 318 318 317 319 318 320 319 322 325 326 331 334 335 335 334 332 332 337 338 340 341 342 341 341 341 338 336 336 336 335 335 334 334 336 337 337 336 336 337 337 336 334 333 333 331 331 331 329 326 323 321 319 317 314 314 320 326 328 328 327 326 328 330 331 330 329 328 326 323 321 320 321 322 320 319 321 322
323 326 327 327 327 322 319 317 316 316 316 317 317 319 319 318 319 318 319 317 318 318 317 318 318 319 318 322 323 324 330 333 334 335 335 333 334 338 338 340 341 341 341 341 341 338 337 337 336 335 335 335 334 335 335 336 335 336 336 336 336 335 334 333 332 332 331 329 327 324 322 319 318 315 316 321 325 327 327 327 327 327 328 328 328 327 326 325 322 321 322 322 321 316 317 320 320
324 325 326 326 324 318 316 316 316 317 316 316 316 317 318 317 318 318 317 317 317 318 319 318 317 317 317 321 321 324 331 333 334 335 336 335 335 338 339 341 341 341 341 341 341 339 337 337 336 336 336 336 336 335 335 335 334 335 335 336 336 335 334 333 333 332 330 329 327 325 323 320 318 315 315 319 323 326 327 326 326 326 326 326 326 325 324 323 322 322 322 320 317 314 317 319 319
325 324 325 326 321 315 314 316 317 317 316 316 316 316 317 317 318 317 317 316 316 318 318 318 317 316 317 320 320 324 331 333 333 335 335 335 336 339 341 341 341 341 341 341 341 339 338 337 337 337 337 338 338 337 335 334 333 333 334 336 336 336 335 334 334 333 331 329 328 326 324 321 319 315 312 313 319 324 326 325 324 325 325 325 324 323 322 322 320 318 315 313 311 313 317 318 320
328 327 324 323 320 317 317 318 317 317 317 316 316 316 316 316 316 317 316 316 316 318 317 317 317 316 317 321 319 322 331 334 333 334 334 335 337 338 340 341 341 342 341 341 341 340 339 338 338 337 337 338 339 338 336 334 333 332 333 335 335 336 335 334 334 333 331 329 328 327 325 322 320 317 313 310 314 320 324 324 324 324 324 324 321 318 319 318 312 308 304 305 309 313 316 320 322
329 330 325 322 323 322 318 319 319 319 317 316 316 316 317 316 316 316 316 315 315 317 317 317 316 316 318 322 322 323 332 334 333 333 333 335 335 337 340 341 341 341 342 341 341 341 340 339 338 338 337 338 338 338 337 334 333 332 332 334 335 335 335 334 334 333 331 329 329 328 326 324 321 319 316 311 311 316 322 323 323 322 322 320 314 311 311 307 303 300 299 303 309 314 318 322 322
330 331 326 325 325 322 320 320 319 319 316 317 316 315 317 315 316 316 316 316 316 317 316 316 315 316 317 320 322 325 333 333 332 333 334 335 334 336 339 339 339 340 341 340 341 341 340 339 339 339 338 338 338 338 337 335 333 331 331 333 335 335 335 334 334 333 332 330 329 328 327 324 323 321 317 312 309 312 317 319 319 318 316 312 307 305 303 300 299 299 301 305 309 316 321 322 322
330 330 326 326 323 319 322 322 320 319 316 317 316 316 317 315 316 316 316 316 316 316 315 315 316 316 317 321 323 328 333 331 331 333 334 334 333 335 337 338 338 339 339 339 339 339 339 340 339 339 338 338 338 338 337 336 334 332 330 331 334 335 335 334 334 333 332 331 329 329 327 325 323 322 318 314 310 309 311 312 312 311 309 305 302 301 299 299 300 300 303 306 310 317 321 320 320
327 329 326 323 320 318 321 322 320 319 317 317 316 315 316 315 316 315 316 316 317 316 315 316 315 316 318 326 330 332 332 330 331 333 333 333 333 334 335 335 335 337 338 337 337 338 339 339 339 338 338 339 338 339 338 337 336 333 331 331 333 335 335 334 334 333 332 331 330 329 328 326 324 322 319 315 312 309 307 307 306 306 304 301 300 299 299 300 300 302 305 307 310 315 318 318 318
324 328 326 320 319 318 319 321 319 318 317 316 315 316 315 315 315 315 315 315 316 315 316 317 316 317 319 326 332 332 331 330 331 333 333 333 334 334 334 333 334 335 336 335 336 337 338 338 338 337 338 339 339 339 338 338 337 335 332 331 333 334 335 335 334 334 333 331 330 330 328 327 325 323 321 316 312 310 307 305 303 301 300 300 300 301 301 301 303 305 308 311 312 314 315 317 317
324 325 322 319 321 319 319 320 319 319 317 316 315 315 316 315 314 314 315 314 316 315 316 317 317 317 317 324 331 330 330 330 331 333 333 333 333 334 333 333 333 334 335 334 335 335 336 337 337 337 337 338 338 339 339 338 338 336 334 331 332 334 334 335 334 333 333 331 330 330 328 327 325 324 322 317 313 310 307 304 302 301 302 303 304 304 304 303 305 307 311 313 314 314 315 316 316
322 325 321 320 323 320 318 318 318 319 317 316 316 316 316 316 315 315 315 315 315 315 316 317 317 317 316 321 328 328 329 330 331 332 333 333 333 334 333 333 333 334 334 334 333 333 334 335 336 336 335 336 337 337 338 339 338 337 336 332 331 333 334 334 334 334 333 332 331 330 328 327 326 325 324 320 315 311 308 306 306 306 307 308 309 309 308 307 307 309 311 312 314 314 314 314 314
321 324 322 321 321 318 318 317 317 318 317 316 316 316 316 316 316 315 315 315 316 316 316 317 317 319 317 318 324 327 328 330 331 332 333 333 333 333 333 333 333 333 334 333 332 331 333 333 334 335 334 335 335 335 336 337 338 337 337 335 332 332 333 334 334 333 333 332 331 330 329 328 327 325 325 322 317 313 310 310 311 312 312 313 313 313 311 310 310 311 312 312 313 314 313 312 312
319 319 319 319 319 317 316 315 316 317 317 317 316 316 316 316 316 315 315 316 316 316 316 317 316 319 319 317 322 324 327 330 330 331 332 333 333 333 333 333 333 333 333 332 331 330 331 332 333 333 334 333 333 335 335 335 338 337 337 336 334 333 332 333 334 333 333 332 332 331 330 328 327 326 325 323 319 315 313 314 314 315 315 315 314 314 313 312 312 312 313 313 313 314 313 312 310
318 316 316 317 318 317 315 314 315 317 318 317 316 316 316 316 316 316 316 316 316 316 316 318 318 320 319 318 321 322 325 328 329 331 331 332 333 332 333 332 332 333 332 331 330 329 329 331 333 332 333 333 332 334 334 335 337 338 337 336 336 335 333 333 333 333 333 333 332 331 331 329 328 326 325 324 321 317 315 316 316 316 316 315 315 315 313 313 313 313 313 313 313 313 313 312 311
317 316 315 316 317 316 314 315 314 316 317 317 316 316 316 316 316 316 316 316 316 317 317 317 320 321 319 318 321 322 323 325 327 330 330 331 332 332 333 333 333 332 332 330 329 328 329 331 332 331 332 332 333 334 333 334 335 336 337 337 337 336 335 334 334 334 333 333 332 332 331 330 329 326 325 324 323 320 318 317 317 317 317 317 317 316 313 314 315 313 312 311 311 312 312 311 311
317 316 315 315 315 315 314 314 313 315 316 315 316 315 316 316 316 316 316 316 316 317 317 315 317 319 320 320 321 321 322 323 325 328 329 330 331 331 331 333 332 331 331 330 329 328 328 329 330 331 331 331 332 333 333 334 333 333 334 336 336 336 335 335 334 334 334 333 333 332 331 330 329 326 325 324 323 322 319 318 317 318 318 318 318 316 315 314 313 311 310 309 309 309 309 309 308
316 316 315 315 315 314 313 313 314 314 314 314 315 315 316 316 315 316 316 316 316 317 316 315 315 317 320 322 323 322 321 323 325 326 327 328 330 330 331 332 331 330 330 330 330 329 327 327 328 330 331 330 330 331 332 333 333 333 332 333 336 336 335 336 335 335 335 334 333 333 332 330 329 327 325 324 323 321 320 319 318 319 319 319 319 317 316 314 310 307 306 306 305 304 303 303 301
316 316 316 315 314 313 314 314 314 315 314 314 315 315 316 316 314 315 316 316 317 318 317 316 315 315 318 322 324 322 321 322 324 325 326 327 329 330 331 331 331 330 330 330 330 328 327 327 327 328 329 328 328 329 330 331 333 333 332 332 335 337 336 335 336 335 335 334 333 333 333 330 329 327 325 324 322 320 321 320 319 320 320 320 319 317 316 313 308 304 303 302 302 300 298 296 295
316 316 316 315 314 314 315 315 314 315 315 314 315 316 316 315 314 316 318 318 318 318 317 317 316 316 316 318 321 320 320 321 323 325 325 326 328 329 331 331 330 329 329 329 329 327 327 327 326 326 327 326 326 326 327 328 331 332 332 332 333 335 336 335 335 335 334 334 334 333 333 331 330 328 326 324 322 321 321 321 320 320 320 320 319 317 315 310 305 301 300 299 298 296 294 293 293
316 316 316 316 315 315 315 315 314 315 315 314 315 316 316 316 316 316 319 319 318 317 317 317 317 317 316 316 318 319 319 321 323 324 325 326 328 329 329 329 329 328 327 328 328 327 326 325 324 324 325 325 325 324 325 326 328 330 331 331 329 331 334 336 335 335 334 333 333 333 333 333 331 329 327 325 323 322 322 322 321 320 320 319 318 317 313 307 304 300 297 296 296 294 293 293 292
316 317 316 315 316 315 315 315 315 315 315 315 315 317 317 317 317 317 319 318 318 317 317 318 318 316 317 318 318 320 320 321 324 324 325 326 325 326 327 327 327 326 325 326 326 325 324 323 322 322 323 322 322 323 323 324 326 328 329 330 329 328 331 334 335 334 334 333 332 332 332 333 332 330 328 326 325 323 323 322 321 320 320 319 318 316 312 308 305 300 296 294 294 293 293 292 292
316 317 316 316 315 315 316 316 316 316 316 316 315 318 320 318 318 318 319 318 318 318 318 318 319 317 318 319 320 321 321 320 323 324 325 325 324 324 324 324 325 324 324 324 323 322 321 321 321 321 321 321 321 320 320 322 325 327 328 329 329 327 328 330 333 333 333 333 332 331 332 332 331 330 328 327 326 325 323 322 322 321 319 319 317 316 314 308 303 298 294 293 293 293 293 292 292
316 316 317 319 316 315 317 317 317 316 316 316 316 318 320 318 319 319 318 318 317 318 318 318 319 319 319 321 322 322 321 319 322 324 324 324 323 322 322 323 324 323 323 322 321 321 320 320 320 320 320 319 319 318 318 322 325 326 327 327 327 326 325 326 329 332 332 332 331 330 330 331 330 329 329 328 328 326 324 322 322 321 319 318 316 315 314 305 299 297 294 293 293 293 293 292 291
317 316 316 319 318 317 318 317 316 317 315 315 316 317 319 318 319 318 317 317 317 317 318 318 319 319 320 321 322 321 320 318 320 323 323 322 322 322 322 323 323 323 322 321 320 320 320 319 319 319 319 317 316 317 318 322 325 325 325 325 324 324 324 324 326 328 330 330 330 329 328 329 329 329 329 329 328 325 324 323 322 321 319 317 316 315 311 302 297 295 293 293 293 293 292 292 291
318 317 316 319 317 317 318 316 316 317 316 315 316 317 318 318 318 318 316 316 317 317 318 319 319 320 320 321 321 320 320 320 319 320 321 321 322 322 322 322 323 322 321 320 319 319 319 319 318 318 316 315 314 315 316 321 324 323 324 323 321 321 322 323 323 325 327 327 327 327 327 328 328 329 328 328 327 325 324 323 322 320 318 316 315 313 308 301 298 295 293 294 294 293 293 291 291
319 317 317 319 318 316 316 316 317 317 317 316 317 317 318 318 317 317 317 316 317 318 318 319 319 320 322 322 321 321 320 321 320 318 320 321 322 322 321 322 322 321 320 319 318 319 318 318 317 316 314 314 315 314 314 318 321 321 322 320 319 319 320 321 321 322 324 325 325 325 326 326 326 327 326 326 326 324 323 322 321 318 316 316 314 311 306 301 298 296 294 294 294 293 292 291 291
318 317 316 317 317 315 315 317 316 316 317 317 317 317 317 317 317 317 318 317 318 319 319 319 319 319 321 322 321 320 320 321 319 317 318 320 321 321 320 321 320 319 319 318 318 318 317 317 316 314 314 315 316 314 312 316 319 319 319 318 318 319 320 321 322 322 323 323 323 323 324 324 325 324 324 325 325 324 323 321 319 317 315 314 312 308 303 300 297 295 294 294 294 293 292 291 291
316 318 317 316 316 314 315 317 315 316 317 317 317 317 316 317 317 318 318 318 318 319 319 319 319 318 319 321 321 321 321 320 318 317 318 319 320 319 319 319 318 317 317 317 317 317 316 316 315 313 314 315 315 313 311 314 318 317 317 317 318 319 320 321 321 321 322 323 323 323 323 323 323 323 324 325 325 323 321 319 317 315 313 312 310 305 301 298 296 295 295 294 293 293 292 291 290
315 317 317 316 316 314 316 317 315 315 316 316 317 317 317 316 317 318 318 319 319 318 319 319 319 319 319 320 321 322 322 320 318 318 317 318 318 318 318 318 317 317 316 316 316 316 315 315 314 313 313 314 314 312 312 314 317 316 316 317 318 319 320 320 320 320 321 322 322 322 323 322 322 322 324 324 323 321 319 318 316 313 312 313 311 306 301 299 297 296 295 294 294 292 291 291 290
315 316 316 317 318 317 317 317 315 315 317 317 317 316 316 316 317 318 318 318 318 317 317 318 318 319 321 321 322 322 324 324 322 319 317 316 317 317 317 316 316 316 315 316 316 315 315 314 314 313 312 312 313 312 313 315 316 316 316 317 318 319 319 319 319 319 320 321 321 321 322 321 320 321 322 322 322 320 318 316 315 314 314 314 311 305 301 299 297 296 295 294 294 293 291 290 290
316 317 318 318 319 318 317 318 315 314 317 318 318 318 317 316 316 316 317 317 317 317 317 317 318 320 321 322 322 322 326 331 327 320 316 315 316 316 316 316 315 315 315 315 316 315 315 314 313 313 312 311 311 311 313 315 316 316 317 317 317 318 318 318 318 318 319 320 320 320 320 320 319 319 320 320 320 319 318 316 315 315 314 313 310 305 301 299 297 296 296 295 293 292 291 290 291
318 318 317 318 321 319 315 316 317 315 316 319 321 320 318 317 318 317 317 316 316 317 318 318 320 323 322 322 324 324 327 331 325 320 317 314 315 316 315 315 315 315 315 315 315 315 314 314 312 312 311 310 310 311 313 315 315 315 316 316 317 318 318 318 317 318 318 318 319 319 318 318 318 317 317 318 318 318 317 316 315 314 314 313 311 306 301 299 298 297 296 296 294 292 291 290 293
320 321 318 318 320 319 316 318 319 316 318 323 322 321 322 322 323 323 321 320 319 319 320 322 323 325 325 324 327 327 327 329 324 321 318 314 314 315 315 315 315 315 315 315 314 314 314 313 312 312 311 310 311 311 312 313 314 314 314 315 316 316 316 315 314 314 315 315 317 318 317 317 316 316 315 315 316 316 316 316 315 314 313 312 310 307 302 300 299 298 297 297 296 294 292 291 294
317 323 324 321 320 320 320 321 321 316 318 323 321 321 326 324 322 324 321 321 323 323 323 324 323 324 325 326 328 328 328 328 323 320 318 314 313 315 315 315 314 315 315 314 314 314 313 313 312 311 310 310 311 311 312 313 313 314 314 313 314 314 312 311 313 314 314 315 315 316 316 316 315 315 313 313 314 316 316 316 316 315 313 310 308 306 303 300 299 299 298 298 297 296 293 292 295
312 321 327 325 324 323 321 321 321 317 318 322 321 321 322 318 315 318 317 318 322 323 325 327 323 323 327 327 328 329 328 328 325 321 317 314 313 314 315 315 314 315 315 315 314 313 313 312 312 311 310 310 310 311 312 313 313 314 314 314 314 314 313 314 316 317 316 315 313 313 315 315 313 313 313 312 314 315 316 316 316 316 313 309 308 306 304 302 301 299 298 299 297 296 294 294 295
317 324 326 324 323 323 322 321 320 320 321 325 324 321 322 320 317 317 316 316 320 322 324 325 322 323 327 328 328 328 328 328 328 325 319 315 313 313 315 315 315 315 314 314 313 313 312 312 311 311 310 309 309 310 312 313 313 313 313 313 313 315 316 317 318 316 315 314 310 310 313 314 313 312 312 312 313 314 316 316 315 315 313 311 308 307 306 305 302 299 298 298 297 296 295 296 296
323 326 325 324 324 324 324 321 321 323 323 325 326 323 324 323 319 319 320 316 318 322 321 320 322 327 328 327 328 327 326 326 326 325 320 314 312 313 315 315 314 315 314 314 313 312 312 311 311 310 309 309 309 309 311 312 313 313 313 313 312 313 314 315 316 314 313 312 308 308 311 312 312 313 312 312 312 313 314 314 313 312 313 312 310 308 308 306 302 299 298 297 297 297 296 296 297
324 324 325 325 325 324 322 321 323 323 321 323 328 326 319 317 317 320 320 317 319 322 319 320 326 330 330 329 327 323 323 322 321 321 317 312 313 314 314 315 314 314 314 314 313 312 312 311 310 310 309 309 309 309 311 312 313 313 313 313 312 311 311 311 311 310 310 310 306 305 308 310 311 313 313 312 311 312 312 312 311 310 311 312 310 308 308 306 302 300 299 298 297 297 296 296 297
323 325 326 324 323 324 322 322 322 320 322 324 327 325 316 313 320 323 319 319 322 319 317 324 330 329 328 330 326 321 321 319 318 319 315 312 313 314 314 315 314 314 314 313 312 312 311 311 310 310 309 307 307 308 310 312 313 312 312 312 311 310 310 310 310 308 308 309 306 305 308 309 311 312 313 312 311 310 310 310 309 308 309 310 309 308 307 305 302 300 300 299 298 298 297 297 297
325 325 323 321 323 325 323 322 322 321 323 324 325 327 321 316 321 323 320 319 321 320 319 324 330 332 329 326 323 320 319 318 317 318 316 313 313 313 313 314 314 314 313 313 312 311 311 310 309 309 308 306 306 308 310 311 312 312 311 311 310 310 310 310 311 311 311 311 310 308 308 309 310 310 312 312 310 309 309 308 308 307 308 308 307 307 306 305 303 302 300 299 299 299 298 297 297
326 323 320 319 320 324 324 326 328 326 322 322 322 324 322 317 318 321 320 318 319 321 321 324 328 333 333 327 321 319 319 317 317 317 317 315 313 312 312 314 314 313 313 312 312 311 310 309 309 309 308 306 306 307 309 310 311 310 309 309 309 309 310 311 312 313 313 314 312 310 309 310 310 311 312 312 310 309 308 308 308 307 307 307 307 306 305 305 304 302 300 300 299 299 297 297 296
324 322 323 323 319 320 323 324 327 326 321 322 321 321 322 319 317 319 319 318 321 322 322 325 326 329 335 331 323 320 319 316 316 316 317 316 312 310 312 313 313 313 313 312 311 311 310 309 309 309 307 306 305 306 308 310 310 308 308 309 309 309 310 310 311 312 313 312 311 311 312 313 313 313 313 311 309 307 306 306 307 307 306 306 306 306 305 304 303 302 300 299 299 298 297 296 295
320 320 321 324 320 318 319 320 323 325 322 320 319 320 324 321 317 320 321 320 322 323 324 326 326 327 333 333 327 323 319 316 317 316 316 314 310 310 312 312 313 313 312 312 311 311 310 309 309 308 307 306 305 305 307 309 309 308 308 308 308 309 310 310 310 309 310 309 308 309 310 311 311 312 310 308 306 303 302 302 303 304 305 305 305 305 304 303 302 301 300 299 298 297 297 296 294
319 319 320 323 323 318 319 319 320 321 321 321 323 324 325 322 318 319 320 319 320 322 325 326 325 325 327 331 331 326 320 318 318 317 316 313 310 310 312 312 313 313 312 312 311 310 310 309 309 308 307 306 304 305 306 308 308 308 308 307 307 308 309 308 307 307 307 307 307 307 307 306 307 307 307 306 304 301 300 300 301 302 303 304 304 303 303 302 301 300 299 298 298 297 297 295 293
320 323 324 325 325 320 320 320 318 318 317 320 323 321 319 316 316 318 316 315 316 319 322 322 322 324 325 328 329 328 324 320 319 318 317 314 310 310 312 312 313 313 312 312 311 310 310 309 308 307 307 305 304 304 305 307 307 307 307 307 307 308 308 307 306 306 306 305 305 305 303 302 302 303 305 306 303 300 300 300 299 300 301 302 302 302 302 302 301 300 300 299 298 297 296 293 291
323 325 323 321 323 321 318 318 320 320 318 319 318 314 313 312 315 321 319 316 317 317 318 319 321 324 324 324 325 331 330 323 320 319 317 313 309 310 311 312 313 313 313 312 311 310 310 309 308 306 306 305 304 304 305 307 307 306 306 306 307 307 307 307 306 306 306 306 305 303 301 300 301 303 305 305 302 300 299 299 299 299 300 301 301 301 301 301 300 300 299 298 298 297 294 291 290
321 323 321 319 323 323 320 317 318 320 318 319 318 314 313 313 313 317 318 319 320 319 317 318 320 321 322 321 325 334 334 327 323 320 318 315 310 309 311 311 312 313 313 312 311 310 309 309 308 306 306 305 304 304 304 306 307 306 306 308 308 308 308 308 307 305 305 306 306 304 301 300 301 302 304 304 303 300 298 298 298 299 300 300 300 300 300 300 300 299 299 298 297 294 291 289 289
319 320 320 320 322 322 322 319 318 319 318 317 318 316 314 315 315 316 316 318 319 319 319 320 320 320 321 321 326 335 336 331 325 320 319 317 311 309 311 311 312 313 312 312 311 310 310 309 308 306 305 305 304 304 304 305 305 306 307 308 308 308 308 308 307 305 305 305 306 305 302 300 300 301 303 304 303 300 298 298 298 298 299 300 299 299 299 299 299 299 298 296 293 291 290 289 288
317 318 320 322 320 319 322 322 319 320 320 317 317 317 315 316 318 318 318 317 318 320 323 326 324 321 324 330 336 340 335 330 325 321 321 317 310 309 311 311 312 312 312 312 311 310 310 308 308 307 305 304 304 304 304 304 304 305 307 307 307 307 307 307 306 305 304 305 305 304 301 299 300 301 301 302 301 300 298 297 297 298 299 299 299 299 298 298 298 297 295 293 291 289 289 289 288
317 315 317 319 319 318 320 321 319 320 321 319 319 319 316 316 319 318 316 318 321 325 326 327 327 326 332 338 337 336 333 328 325 322 321 317 310 309 310 310 311 312 311 311 311 310 309 308 308 307 305 304 304 303 303 303 303 304 306 306 306 307 307 306 305 303 303 303 303 301 299 298 298 299 300 301 301 299 296 296 296 296 298 299 299 298 298 297 296 293 291 290 289 289 288 288 287
Wind_Speed
7 5 4 5 5 5 4 4 1 3 2 4 4 2 2 3 3 5 5 4 3 4 3 4 5 4 2 2 5 10 9 6 2 1 2 4 10 11 10 12 11 13 12 10 12 13 13 13 12 12 9 8 8 8 10 10 11 13 14 13 13 13 13 13 14 15 16 16 17 17 18 19 18 18 19 20 20 20 20 19 19 18 18 19 17 17 18 19 19 19 20 22 23 24 25 26 28
6 4 4 7 7 4 3 4 1 2 3 4 4 4 4 2 2 5 6 5 5 4 4 5 5 3 2 0 3 9 10 9 6 5 6 10 11 10 11 12 12 13 12 10 11 12 13 13 13 12 9 8 9 8 9 10 11 12 13 13 13 12 12 13 13 14 15 16 17 17 19 18 18 18 19 20 19 19 19 19 19 18 18 19 18 18 19 20 19 18 20 21 22 23 24 27 29
6 4 4 7 8 5 3 1 2 2 4 4 4 3 4 3 4 8 8 8 7 5 5 4 4 3 2 2 4 7 7 7 10 7 7 12 10 8 11 11 12 13 12 12 11 11 12 13 13 12 10 9 9 9 9 10 10 11 13 13 13 12 12 12 12 13 14 16 16 17 18 18 18 18 19 19 19 19 18 19 19 18 18 17 17 17 18 19 19 19 20 21 22 22 24 27 29
6 4 5 6 4 4 3 1 3 2 3 4 4 3 3 5 8 9 7 7 5 4 4 2 2 2 3 5 5 6 7 6 9 9 7 10 12 11 11 11 13 13 13 13 12 11 12 12 12 12 10 9 9 8 9 9 10 11 12 13 13 12 11 12 12 13 14 15 16 17 17 17 17 18 19 19 19 18 18 18 19 18 17 16 15 17 18 19 19 18 19 20 21 21 23 25 28
6 4 7 7 2 1 2 2 2 4 3 1 4 3 4 8 8 8 6 5 4 4 2 1 2 1 2 5 3 3 4 5 11 12 9 10 14 14 11 13 13 13 14 13 13 12 12 12 11 12 10 9 8 9 9 10 10 10 11 12 12 11 11 11 11 12 13 14 15 16 16 17 17 18 18 18 18 18 18 18 18 16 14 15 16 17 18 18 18 17 18 19 20 20 22 23 25
6 7 8 8 2 1 1 2 2 6 3 2 5 4 7 9 8 8 7 5 4 4 3 2 2 2 4 4 5 5 2 5 10 10 10 12 13 13 13 13 12 13 13 13 12 12 14 12 12 13 11 9 8 9 9 9 9 9 10 11 12 11 11 11 11 11 12 13 15 16 16 16 16 17 18 18 18 18 18 18 18 15 13 16 17 18 17 17 16 16 17 18 19 19 20 21 23
7 7 4 5 2 1 1 0 4 5 4 5 5 5 8 8 8 8 7 5 3 3 1 2 1 3 4 3 5 8 9 8 10 8 11 13 13 14 14 13 12 14 13 12 11 13 14 13 12 12 12 10 8 9 8 9 9 8 9 11 11 11 11 11 11 11 12 13 14 15 15 16 16 16 17 18 18 18 18 17 16 14 15 16 16 17 16 15 15 15 16 18 19 18 18 19 21
7 4 1 1 2 2 1 3 6 4 2 5 5 6 9 9 8 7 7 5 3 3 2 1 1 2 2 3 3 7 13 14 14 13 14 14 15 15 14 13 13 15 13 11 11 13 15 13 12 12 12 11 9 8 8 9 8 8 9 10 10 11 11 10 11 11 11 12 13 15 15 16 16 16 17 18 17 17 17 17 16 14 15 15 15 16 15 14 15 15 16 18 18 17 18 19 20
6 4 1 1 2 1 2 5 5 4 4 4 5 6 8 7 7 6 5 4 4 4 4 3 2 2 4 5 5 7 12 15 17 16 14 13 15 13 10 12 14 14 13 10 10 14 15 13 13 12 12 11 10 9 8 8 8 8 8 9 10 10 10 10 10 11 11 11 13 14 14 15 15 15 16 17 17 17 17 17 16 15 15 15 15 15 14 14 15 16 16 17 17 17 20 21 21
5 3 1 1 3 1 3 4 4 4 5 5 5 6 6 4 4 6 5 5 5 5 5 4 2 2 5 6 5 6 11 16 18 16 13 13 14 10 9 11 13 14 12 9 10 14 14 13 13 12 12 12 11 10 8 8 7 7 7 8 9 10 10 9 10 10 10 10 12 13 13 14 14 14 15 16 17 17 17 17 17 17 17 16 16 15 14 15 16 16 16 17 17 19 22 22 22
2 3 1 1 4 2 4 5 4 4 5 5 5 5 4 3 2 3 5 6 5 5 5 2 2 1 4 6 2 6 14 16 17 17 14 14 13 10 9 10 12 13 12 11 11 13 14 13 13 12 12 12 11 10 9 8 7 7 8 8 8 9 10 9 9 9 9 10 11 12 12 13 13 13 13 15 17 17 17 17 17 17 17 16 15 15 16 16 15 15 15 16 19 21 23 23 24
1 3 2 1 4 2 3 5 5 5 5 4 5 4 3 3 2 2 4 5 4 5 5 3 1 1 3 4 2 9 14 14 17 17 16 15 13 11 10 9 11 14 14 13 12 11 12 13 13 12 11 11 11 11 10 9 8 8 8 8 8 9 9 9 9 9 8 9 10 10 11 12 12 12 12 13 15 17 18 18 17 16 16 14 14 15 16 15 14 15 17 19 22 23 24 25 25
1 3 2 3 2 4 2 4 6 5 4 3 5 5 4 3 4 3 4 5 5 5 4 2 1 2 2 4 4 8 11 14 17 16 17 14 12 14 12 9 10 12 14 14 12 10 10 12 13 11 11 11 10 10 10 9 9 8 8 8 8 9 9 9 9 8 8 9 9 9 10 11 11 11 11 11 13 16 17 17 17 15 15 14 13 16 16 15 17 18 19 22 24 25 26 26 26
1 3 1 2 1 2 1 4 5 5 3 4 7 6 5 3 1 2 2 4 4 2 2 2 2 2 1 4 3 4 9 15 16 16 17 14 15 16 12 10 10 11 12 12 11 12 12 11 12 12 11 11 10 10 9 9 9 9 9 8 8 9 9 10 9 8 8 8 9 9 9 10 11 11 11 11 12 13 15 15 15 14 15 15 15 16 16 18 19 20 21 23 25 27 27 27 25
2 3 2 2 1 2 2 3 3 3 3 5 7 7 5 1 3 3 3 3 2 1 2 3 3 2 1 2 2 5 12 17 17 17 16 14 16 16 11 12 10 10 11 10 11 13 14 13 12 11 12 12 11 10 10 9 9 9 10 9 9 9 10 10 9 8 8 8 8 8 9 10 11 11 11 11 11 11 12 13 13 14 15 16 16 17 18 19 20 21 22 23 25 27 27 26 25
1 2 1 2 0 1 1 2 1 1 4 5 6 7 6 2 2 2 2 1 2 0 1 2 2 1 3 3 5 12 17 17 17 17 16 15 15 14 11 10 10 10 11 10 11 12 13 14 12 11 13 13 11 10 10 10 10 10 10 10 9 9 10 10 10 9 8 8 8 8 7 8 10 11 11 11 11 11 11 12 13 14 15 17 18 19 20 20 21 22 22 23 24 24 24 24 24
1 1 0 3 2 2 2 2 2 3 5 5 7 7 6 4 1 1 1 1 3 2 1 4 4 3 5 6 11 16 17 16 17 17 16 16 14 13 12 11 12 11 10 10 11 12 13 13 13 12 12 12 11 10 11 11 11 10 11 11 10 10 10 11 10 10 9 8 8 7 6 8 10 11 11 11 11 11 11 12 13 15 17 18 19 20 21 21 22 22 22 22 21 21 20 21 22
1 0 1 3 2 2 1 2 3 5 7 6 7 8 6 6 3 2 2 1 2 3 3 4 6 7 9 11 14 15 15 16 17 17 16 15 14 13 13 14 14 13 13 11 11 12 13 12 12 13 13 11 10 9 10 11 12 11 11 12 12 11 11 11 11 11 11 10 8 7 7 8 9 10 11 11 12 11 11 12 14 17 18 20 21 21 22 22 22 23 22 22 20 19 19 20 22
1 1 2 2 2 2 4 6 5 3 7 8 7 7 5 7 7 3 2 4 5 4 4 5 6 6 8 12 14 14 14 15 15 16 16 15 15 14 14 14 14 16 15 14 14 13 13 13 12 12 11 11 10 10 11 10 12 13 12 12 13 13 11 12 12 12 12 11 10 8 9 10 9 10 10 11 12 12 12 13 15 17 19 20 21 21 21 22 22 22 21 20 19 19 19 19 22
0 0 0 1 3 3 6 8 6 5 5 8 6 4 2 4 5 4 3 5 7 7 5 7 7 6 8 10 13 15 14 15 15 14 15 15 15 15 15 15 14 15 16 16 16 14 14 16 15 13 11 12 12 10 11 10 11 13 13 13 13 14 13 13 13 14 13 13 12 10 12 13 11 10 10 10 11 13 14 15 16 17 19 19 20 21 21 21 20 19 19 18 18 18 18 19 21
1 2 1 2 2 3 6 7 5 5 3 5 6 3 2 3 3 4 4 4 5 6 6 7 8 10 11 10 12 15 15 15 15 14 14 15 15 15 16 16 14 14 16 15 15 17 16 16 17 17 15 15 13 10 10 10 11 13 14 14 14 15 15 15 14 15 15 14 14 13 15 15 12 11 11 11 12 14 15 16 17 17 18 19 19 18 17 16 16 16 16 16 17 17 18 20 21
1 2 3 3 4 3 4 5 5 5 2 5 7 4 3 4 2 3 5 3 3 2 1 3 3 8 13 11 12 14 13 14 15 15 15 15 15 15 16 16 14 15 18 17 15 16 16 15 16 16 16 15 14 12 10 11 11 12 14 15 16 16 15 16 16 16 17 16 17 15 16 17 14 14 13 13 14 14 16 17 17 18 19 19 16 12 11 11 12 12 14 15 16 18 19 21 22
2 2 3 4 4 3 3 3 4 6 3 5 4 2 3 3 2 4 6 5 3 4 5 7 7 11 16 14 13 11 10 12 14 16 17 16 16 15 15 17 16 15 19 19 15 14 15 15 15 15 14 13 14 14 11 12 13 13 13 14 16 18 17 17 17 18 18 18 19 18 18 19 17 16 16 15 15 15 16 17 18 19 18 16 11 8 9 10 11 12 14 16 18 19 21 23 24
1 2 3 4 5 5 4 3 2 5 5 3 1 2 2 4 2 0 4 6 3 6 7 8 8 12 16 13 10 10 11 13 15 17 18 17 17 16 14 16 16 15 18 17 14 14 15 16 16 16 14 11 13 15 12 11 12 13 14 14 16 17 18 19 19 18 18 19 20 19 19 21 20 19 18 18 18 17 18 18 19 18 15 13 11 10 11 11 13 14 17 19 21 22 24 25 26
0 3 4 3 5 5 4 4 2 4 4 3 2 0 0 2 1 2 4 7 4 5 8 8 8 8 10 10 9 9 10 13 15 16 17 17 16 17 15 15 15 15 17 17 16 15 14 15 15 16 16 12 11 12 12 10 10 12 12 14 17 17 16 18 19 19 18 19 21 20 19 21 21 20 20 20 21 21 20 19 19 18 15 15 13 12 13 14 16 18 20 23 24 26 27 28 29
1 5 5 4 5 4 4 4 3 3 2 2 1 2 1 4 2 3 7 8 5 7 8 7 7 6 6 7 8 9 8 11 15 16 17 17 15 17 17 15 14 15 17 17 18 16 13 14 14 14 14 13 11 11 12 11 11 13 12 13 17 18 16 16 17 18 18 18 18 18 19 22 23 22 22 23 24 23 22 22 21 19 18 17 15 15 16 15 18 21 24 25 26 28 29 29 30
3 6 6 6 6 4 2 3 4 2 3 2 2 2 1 4 1 3 4 3 6 8 7 6 6 6 6 6 7 9 10 12 16 16 16 16 16 17 18 16 16 15 16 17 17 16 14 14 15 15 14 14 15 14 13 13 12 14 15 15 17 18 19 18 17 16 16 16 16 18 19 22 24 25 25 25 26 25 24 24 23 22 21 19 17 18 18 18 21 24 26 27 28 29 29 29 30
4 7 7 5 5 4 2 3 4 2 2 0 3 3 2 3 2 6 3 2 5 7 6 7 6 6 7 7 7 8 10 13 17 17 16 18 18 19 19 19 19 17 16 17 16 16 16 16 16 16 16 16 17 17 15 15 14 13 15 17 18 19 19 19 21 19 17 17 17 18 19 22 24 26 28 28 27 27 26 27 25 24 23 21 20 20 21 22 23 25 27 28 29 29 29 28 28
5 5 5 5 4 4 5 4 4 2 1 1 2 4 5 5 8 9 6 5 5 6 6 6 6 6 6 7 6 6 8 12 16 17 18 19 20 20 20 21 22 19 18 18 17 17 17 17 16 15 16 16 16 17 16 15 14 13 16 17 17 19 18 17 19 21 20 19 19 18 19 21 22 25 29 29 28 29 29 28 27 25 24 23 22 22 23 24 24 26 28 29 29 30 29 28 27
4 3 1 5 3 3 6 4 4 3 1 1 3 2 5 7 12 7 8 7 6 5 6 6 6 6 6 6 6 6 7 11 14 17 19 18 18 20 20 20 21 21 19 19 18 18 17 17 16 16 16 17 16 14 14 14 13 14 16 16 15 16 18 16 16 20 21 21 19 17 18 20 20 23 28 28 28 29 30 29 28 26 25 24 24 24 23 24 26 27 29 29 29 30 28 27 27
2 1 1 3 3 2 3 4 5 3 1 1 4 1 6 3 6 5 6 7 6 6 6 7 7 6 6 6 7 6 8 12 14 17 18 18 18 19 20 20 20 21 20 20 19 18 18 17 17 17 17 16 15 14 15 16 15 15 16 17 17 15 16 16 16 18 20 20 19 17 18 19 19 21 25 26 27 29 31 30 28 26 26 26 26 25 23 26 28 29 29 29 29 29 28 26 26
2 2 1 3 3 2 2 2 4 3 0 3 3 2 6 2 4 5 4 5 5 6 6 7 7 7 7 6 7 6 7 12 16 17 18 19 19 19 20 20 21 22 20 20 20 18 18 18 17 18 17 15 16 16 18 20 17 16 18 19 20 17 16 17 17 18 19 19 18 16 16 17 19 21 24 27 28 30 32 31 29 28 28 28 27 25 26 29 30 29 28 28 29 29 28 26 25
2 2 2 3 3 3 3 1 0 2 2 3 4 3 4 1 4 5 4 5 6 5 6 7 7 7 8 7 7 7 6 9 12 16 19 20 20 21 21 21 22 22 20 20 20 19 18 18 18 17 16 14 15 17 20 22 19 17 19 19 18 17 19 20 19 19 19 19 17 16 16 18 20 23 25 28 29 30 32 30 29 29 30 30 28 28 29 30 30 30 27 26 29 29 28 27 26
3 3 2 2 2 3 3 0 0 2 1 2 5 5 6 7 5 4 5 7 7 7 8 8 7 7 7 7 7 7 8 8 9 16 21 22 22 22 22 22 23 23 21 19 19 19 19 18 18 17 15 13 15 17 19 21 20 19 20 18 14 13 16 20 21 21 20 19 18 17 19 20 23 24 24 27 28 30 31 30 30 31 32 31 30 30 31 31 30 29 27 25 26 28 28 28 26
3 4 3 2 2 3 2 2 2 3 2 2 4 6 8 11 9 7 7 8 9 8 9 8 8 8 7 7 8 8 9 9 11 18 24 25 24 23 22 22 22 23 22 19 19 19 19 18 18 16 14 14 16 16 16 20 21 20 19 16 13 12 14 17 20 21 21 20 19 19 20 22 24 23 23 25 28 29 30 31 31 32 33 33 33 33 32 32 30 29 28 26 25 26 27 28 28
2 3 2 1 0 1 2 4 0 1 2 4 6 7 9 9 10 9 8 8 9 9 9 8 8 8 8 7 7 8 10 9 13 22 26 26 26 24 23 23 23 22 22 21 20 20 20 20 18 17 17 16 16 15 15 19 21 20 18 15 15 14 15 15 16 18 19 20 19 20 20 21 23 23 21 23 27 29 31 32 33 34 34 34 34 34 34 33 31 30 28 27 27 26 26 28 28
3 2 2 2 2 2 3 4 1 2 0 5 7 7 9 9 9 9 8 7 7 8 9 9 9 9 8 8 8 9 9 9 14 22 26 27 26 25 24 24 23 22 21 22 22 22 22 21 19 19 19 17 16 16 16 21 22 21 19 18 18 17 15 14 14 15 17 19 19 19 20 20 22 23 22 24 26 29 31 32 34 34 33 33 33 33 34 32 31 30 29 28 29 29 28 27 28
3 2 2 2 0 2 3 3 1 1 2 4 6 7 10 9 8 8 8 8 10 11 10 11 11 9 7 8 9 9 7 6 9 15 21 24 25 25 25 24 25 24 23 24 24 23 22 21 20 20 19 19 18 17 18 22 23 22 21 20 19 18 17 15 15 15 17 18 19 19 20 21 22 23 23 24 26 28 31 32 34 33 33 33 33 33 32 31 31 31 31 29 29 30 29 29 30
3 1 2 1 1 2 4 3 0 1 1 4 6 6 10 12 10 10 11 11 12 11 11 11 11 8 8 9 9 9 7 6 7 9 14 20 23 24 24 23 24 24 23 24 23 23 22 21 21 20 19 20 20 17 19 21 21 21 21 19 20 19 18 17 16 16 17 18 19 20 20 22 23 24 24 24 26 29 31 33 34 34 34 34 34 33 31 31 32 32 33 32 31 29 28 31 28
1 1 1 1 1 2 1 1 2 3 1 2 6 5 9 12 11 11 13 13 12 11 11 11 9 8 9 8 7 8 9 8 8 8 10 16 19 21 22 22 23 22 22 23 23 23 22 22 22 20 19 19 20 18 19 21 21 20 19 19 19 19 17 17 17 18 19 19 20 21 22 24 25 25 25 25 27 29 31 33 34 34 35 35 35 35 33 33 34 33 33 33 34 31 29 30 22
3 4 2 2 0 3 2 1 2 3 1 3 5 5 6 7 7 8 6 5 8 9 9 10 9 8 7 6 6 7 8 9 10 9 9 13 17 20 22 22 22 22 23 24 24 23 22 21 21 20 19 18 20 20 20 22 22 21 20 18 18 18 17 17 18 19 20 20 21 22 23 26 28 27 26 25 27 29 30 32 33 35 36 36 36 36 35 35 35 35 34 34 36 34 33 31 20
3 3 1 2 3 5 3 3 3 1 2 3 1 4 6 4 4 6 4 1 5 5 6 10 9 7 6 6 7 7 6 7 10 10 11 13 16 19 20 21 22 22 22 23 24 23 21 20 20 20 19 18 20 23 23 23 22 22 22 21 21 20 18 19 20 20 21 22 23 23 24 27 28 28 27 27 27 28 30 31 32 34 36 36 35 35 35 35 35 35 34 34 35 35 34 32 25
2 2 4 4 5 6 3 4 3 1 3 4 3 1 5 6 6 9 8 8 8 5 7 10 9 6 7 7 7 6 6 6 7 9 10 12 15 17 19 21 22 22 21 22 23 22 21 20 21 21 20 20 21 24 25 24 23 23 23 23 23 22 21 21 21 22 23 24 24 24 25 27 28 28 29 28 27 28 29 30 32 34 35 35 35 35 34 34 35 34 34 34 34 33 33 32 29
2 3 4 2 6 4 2 3 0 2 3 3 4 4 4 6 6 9 10 11 9 7 8 11 8 5 6 6 6 6 5 6 7 7 8 11 15 18 18 21 22 22 21 22 23 23 22 21 21 21 21 21 22 24 25 25 24 24 24 23 23 23 23 23 22 23 23 24 24 24 25 26 26 27 29 29 28 28 28 30 32 34 35 35 34 34 34 34 34 33 33 33 32 31 30 31 31
2 3 2 3 6 3 2 2 1 2 4 3 3 3 3 6 5 6 8 9 7 8 10 10 4 5 6 6 6 5 5 5 5 7 8 10 15 18 20 21 22 21 21 22 24 23 22 22 21 21 21 22 23 25 25 25 24 24 24 23 22 22 22 22 22 23 24 24 23 23 24 25 26 26 27 28 28 28 29 30 32 34 35 35 34 33 33 32 33 33 33 32 29 28 28 28 29
3 4 2 5 4 4 3 2 2 3 3 3 5 5 2 6 4 4 5 6 7 8 9 5 4 7 6 6 6 5 5 4 3 5 7 11 16 18 19 20 21 20 21 22 22 22 23 22 21 22 21 22 23 25 25 25 24 24 24 24 22 21 20 20 21 22 24 24 23 23 24 25 25 26 27 28 28 29 30 31 32 33 34 35 34 33 32 32 33 33 32 31 28 26 26 26 26
4 3 3 4 2 4 3 1 4 2 3 3 5 7 4 5 4 3 3 5 7 7 4 3 5 5 6 6 6 6 5 4 3 4 7 11 15 16 17 19 20 20 20 21 22 22 23 22 21 22 21 20 22 24 25 25 25 25 25 25 23 22 22 21 22 23 24 25 24 24 24 24 25 26 27 28 28 29 30 31 31 31 32 33 33 32 32 33 34 33 31 30 27 25 25 24 22
2 2 3 3 2 4 3 2 4 0 4 2 3 2 3 5 4 1 2 4 4 4 3 6 7 5 6 6 6 6 6 5 5 5 6 8 10 13 16 19 20 20 21 21 22 22 23 22 21 21 21 19 20 23 24 25 25 26 26 25 24 23 23 24 25 26 26 27 27 25 24 24 24 25 26 28 29 29 30 31 31 31 31 32 32 32 33 34 34 33 32 31 28 26 25 22 20
1 2 5 4 1 2 1 1 1 3 4 3 5 5 2 7 5 3 5 5 4 4 4 6 8 7 7 7 6 6 6 6 6 6 6 6 7 10 14 18 20 21 22 22 22 22 23 22 21 21 21 20 21 23 24 24 25 26 25 24 24 24 24 25 25 26 27 28 29 28 27 27 27 27 28 29 30 31 31 32 32 32 32 33 33 33 34 35 35 34 33 32 29 26 24 22 21
3 5 5 5 3 1 3 2 2 4 3 4 5 3 3 6 4 6 8 6 5 5 4 4 6 7 7 8 7 6 6 7 6 6 7 6 7 11 14 17 20 21 22 23 23 23 22 22 21 21 21 21 22 24 25 25 26 26 25 25 25 25 25 25 25 25 27 28 29 29 29 30 31 30 30 31 31 31 31 32 33 33 33 33 34 34 34 35 35 35 34 31 28 26 23 22 21
5 4 3 4 4 3 3 3 2 3 1 3 4 1 3 2 3 5 4 1 2 2 4 3 2 3 5 6 7 7 7 6 6 6 7 7 11 15 16 17 20 21 22 23 23 23 23 22 22 22 21 21 23 25 26 26 27 26 26 26 26 26 26 26 26 25 27 28 28 29 30 31 31 31 30 31 32 32 31 31 32 33 34 34 34 34 34 35 34 34 33 31 28 25 23 21 20
4 2 1 4 4 2 1 1 2 2 1 3 2 3 5 4 7 9 6 5 5 4 6 6 4 2 3 4 6 7 7 6 6 6 7 8 12 16 17 19 20 21 23 24 24 25 24 23 23 23 23 22 23 26 26 27 27 27 27 27 27 27 26 26 26 26 26 27 28 28 29 29 30 30 30 31 32 31 31 31 32 33 34 34 34 34 34 34 34 33 32 30 27 25 23 21 21
2 2 3 4 1 4 3 1 1 4 2 4 3 5 6 3 9 11 10 11 9 6 7 6 7 6 5 7 7 7 7 7 8 7 7 8 12 16 19 20 21 22 24 25 25 26 26 25 25 24 24 23 24 26 27 27 27 26 27 28 28 28 27 27 27 27 27 27 27 27 27 27 28 30 31 32 32 31 31 31 32 34 34 34 34 34 34 34 33 33 32 30 27 25 23 22 22
4 3 3 1 3 3 3 1 2 1 5 4 4 8 7 2 6 5 1 5 7 8 9 8 8 8 8 10 7 7 8 8 8 8 8 9 12 16 19 21 22 23 25 26 26 26 27 27 26 25 26 25 26 27 28 28 28 27 27 28 29 29 28 28 28 28 28 28 28 27 26 27 29 31 32 33 32 32 32 32 32 33 34 34 33 33 33 33 32 31 30 29 27 25 24 23 23
4 2 1 2 1 1 2 2 2 3 4 4 4 7 6 6 8 4 2 3 6 8 9 9 9 9 9 9 7 6 7 7 7 7 7 8 12 16 19 21 23 24 25 25 25 25 26 27 26 26 26 26 27 28 29 29 29 28 28 28 29 29 29 29 29 28 28 28 29 29 28 28 30 32 33 33 33 32 33 32 33 33 33 33 33 33 32 32 31 31 30 28 27 26 26 25 24
3 3 2 2 2 3 3 3 3 3 4 5 5 4 5 7 6 5 7 8 8 9 8 8 9 9 8 8 6 6 6 6 6 7 7 7 11 17 20 21 22 23 24 24 24 25 26 26 26 25 25 25 27 29 29 30 29 29 29 29 29 29 29 30 30 30 29 28 30 31 30 30 32 33 33 34 34 34 34 34 34 33 33 33 33 32 32 31 31 30 30 29 28 28 27 27 26
2 1 2 2 1 2 0 1 2 4 3 3 4 5 8 6 4 6 7 5 5 8 9 8 9 8 6 4 4 5 6 6 6 7 7 7 10 15 18 19 19 19 21 23 25 26 26 26 27 26 26 26 28 30 31 31 30 30 30 30 30 30 30 30 31 31 30 30 31 32 32 32 33 33 34 35 35 35 35 35 35 34 34 33 33 32 32 32 31 31 30 30 29 29 28 28 27
7 6 7 7 5 4 1 3 3 2 2 3 2 5 11 6 4 3 2 3 3 5 7 7 5 3 3 4 4 5 6 6 6 7 7 7 10 14 16 18 19 20 21 23 25 26 26 27 28 27 27 28 29 30 32 32 31 31 32 31 31 31 30 31 31 31 31 30 31 33 32 32 33 34 34 35 35 35 35 35 35 35 34 33 33 33 33 32 32 32 31 31 30 30 30 29 28
Wind_Direction
309 300 292 296 286 306 275 213 267 239 178 85 95 106 79 56 105 116 111 117 94 59 46 64 52 38 36 2 82 76 38 35 46 346 142 131 131 138 135 134 136 134 138 141 138 139 139 140 139 131 131 130 122 123 124 119 115 115 108 101 97 90 85 83 77 73 68 67 66 63 63 67 69 68 71 73 74 76 77 78 78 80 83 84 85 89 89 83 78 75 73 74 75 75 76 79 81
303 287 292 290 263 267 265 182 238 237 124 84 75 79 107 123 142 106 93 82 78 84 67 68 68 55 76 114 104 82 54 54 79 78 105 118 121 136 137 138 145 139 138 138 135 138 140 141 138 133 138 136 127 127 127 122 119 118 112 104 101 95 89 86 80 74 68 66 65 61 60 64 68 70 73 76 76 76 77 78 80 83 85 85 82 82 82 79 79 79 76 76 77 76 78 81 84
292 268 268 268 240 224 269 180 229 234 120 103 78 99 147 134 95 80 78 80 86 95 83 88 88 32 354 52 59 75 78 76 94 93 114 130 127 145 147 146 151 142 138 137 135 142 142 142 137 134 143 137 130 131 129 124 121 120 114 109 107 100 93 88 82 77 69 65 65 60 58 61 65 71 76 78 78 78 78 80 82 84 84 87 89 85 83 83 85 84 79 78 79 78 79 82 85
283 257 253 263 236 207 259 210 242 313 91 110 104 170 165 102 91 81 80 86 91 103 103 116 94 358 360 42 47 81 93 76 94 105 124 137 138 148 152 149 148 141 140 141 142 148 144 143 138 135 140 137 133 130 128 125 122 120 115 112 111 104 96 91 84 79 71 66 66 63 61 63 66 73 79 81 82 81 81 82 81 85 88 92 99 97 94 93 90 86 80 80 81 80 82 83 86
287 256 240 257 270 210 269 262 299 37 47 83 116 168 116 95 101 100 95 88 81 65 45 69 70 47 52 37 13 77 98 90 87 96 105 115 133 143 149 148 146 142 143 145 147 151 146 143 140 136 137 138 137 129 129 127 123 121 118 116 112 107 99 93 88 81 75 69 67 67 65 66 69 76 81 81 83 84 84 83 83 91 97 96 97 96 95 93 90 85 80 80 81 83 84 84 86
306 284 237 234 260 340 303 283 60 76 353 349 113 123 98 107 111 113 112 98 84 61 22 17 66 103 100 55 51 55 39 106 89 89 110 114 130 144 152 152 148 143 147 150 150 153 147 144 143 140 138 140 140 133 132 127 125 125 122 120 115 112 104 96 93 87 80 74 71 71 69 69 71 77 84 83 83 86 86 85 87 89 89 90 92 93 92 89 89 85 81 82 81 83 86 86 86
300 298 225 220 265 269 246 359 70 80 337 4 99 115 103 113 116 124 128 117 106 111 37 360 26 80 113 116 81 60 44 87 101 105 132 134 141 150 153 153 150 145 149 154 153 154 150 148 145 143 142 140 143 139 135 128 129 128 126 123 118 117 110 103 99 93 87 79 75 75 73 73 74 80 87 88 87 87 86 87 92 89 81 84 88 88 89 90 90 85 83 83 79 81 86 88 88
274 277 180 253 273 217 215 65 60 64 16 20 56 101 110 120 129 143 143 140 148 145 150 132 65 43 135 135 100 83 70 90 108 115 130 139 146 147 148 150 150 146 153 156 152 155 153 154 150 146 144 139 144 146 140 133 132 132 130 126 123 122 116 110 104 98 92 84 80 78 76 76 78 84 90 92 91 90 89 88 94 93 84 85 86 86 90 92 89 83 82 81 78 81 85 90 89
244 234 301 323 257 240 64 85 84 83 101 67 56 82 105 130 145 147 137 127 136 136 132 132 86 72 138 97 97 110 93 105 113 117 124 135 146 143 146 155 153 145 154 155 149 159 157 157 154 148 145 139 142 148 149 141 137 138 132 128 127 127 122 114 109 103 97 90 84 80 78 79 81 86 93 95 95 94 93 91 92 92 89 87 85 87 92 92 87 84 83 80 79 83 86 91 91
227 202 266 298 258 197 106 102 102 98 100 98 99 94 103 137 155 148 135 121 137 124 95 94 81 131 141 106 110 120 117 126 120 118 123 138 147 139 137 148 153 148 152 151 149 165 161 159 159 153 149 145 143 145 153 149 145 146 140 134 130 130 126 120 113 107 103 95 87 83 80 82 84 88 95 100 101 98 95 94 94 93 92 90 88 90 91 89 87 84 82 80 82 87 90 92 91
251 202 174 311 268 176 124 107 103 107 102 101 106 102 114 136 155 151 124 116 134 118 105 119 111 160 145 106 95 125 131 134 123 122 127 137 137 127 125 124 140 148 149 149 148 162 165 165 164 161 157 153 150 150 154 155 156 153 150 144 135 134 131 126 120 113 109 100 93 87 83 84 85 88 95 104 106 102 98 97 98 97 95 96 98 98 93 88 86 84 83 86 89 92 94 95 93
269 229 160 263 282 53 84 106 113 112 110 123 119 117 128 134 165 163 120 120 133 122 129 169 106 43 143 103 100 143 137 130 126 129 129 134 136 129 132 122 134 146 146 147 149 156 166 173 169 168 168 163 159 157 158 158 159 158 159 154 143 140 138 134 128 122 116 107 100 91 87 88 86 88 92 103 109 107 104 101 101 101 98 103 107 98 91 89 89 89 92 95 97 97 99 99 94
253 255 178 243 300 47 60 99 111 115 131 164 133 131 140 160 186 167 145 139 137 137 124 118 79 27 93 93 109 149 133 127 132 133 129 135 145 134 133 138 137 147 148 147 151 149 155 172 173 173 175 174 172 165 161 160 159 162 167 164 153 149 147 143 137 133 126 115 105 97 93 92 89 88 90 99 110 112 109 107 107 105 102 105 104 94 92 95 96 97 99 101 102 103 103 99 93
270 294 28 271 324 56 62 97 131 148 157 146 122 138 157 181 214 106 142 135 111 136 114 31 47 58 92 112 136 166 128 131 137 134 133 137 145 136 139 153 136 137 148 148 154 152 150 162 172 177 181 184 183 175 168 163 161 165 174 173 163 158 156 152 149 143 132 123 113 104 99 96 92 88 90 97 107 114 116 116 113 109 105 104 100 98 101 102 103 103 104 105 108 109 105 100 96
312 323 355 314 4 73 59 94 154 160 123 121 127 149 154 81 2 29 48 95 78 45 110 29 25 60 46 113 164 156 132 138 140 134 137 136 140 141 148 163 153 138 142 152 160 158 158 160 165 174 181 186 188 183 179 175 167 167 177 180 173 166 163 161 159 151 140 132 121 111 101 98 96 91 92 97 104 112 116 117 113 109 105 104 104 106 107 107 106 106 107 109 114 114 108 102 97
330 337 3 309 304 114 191 109 83 101 112 129 140 148 143 90 9 32 15 40 107 291 117 73 40 49 32 56 110 124 134 144 141 137 135 132 141 146 145 163 176 160 147 163 171 162 163 167 168 169 175 181 186 187 186 184 177 173 177 183 181 173 170 168 165 158 151 145 131 118 105 103 103 99 98 100 106 111 115 116 114 110 106 107 109 109 109 108 108 108 110 114 118 118 111 105 98
303 4 359 261 211 137 190 153 125 135 119 135 150 152 145 131 22 92 208 307 108 140 114 82 68 67 69 97 118 124 137 146 141 140 138 137 145 151 154 158 168 173 166 176 183 174 171 177 177 169 168 174 179 187 190 186 183 181 178 183 184 179 178 173 169 165 160 156 146 131 118 116 112 107 105 106 111 116 118 118 115 113 112 113 114 114 114 113 113 114 114 114 116 116 113 108 99
323 163 219 253 203 126 272 83 105 139 136 150 161 170 158 145 171 116 137 272 116 150 147 106 80 79 95 116 128 132 142 146 147 149 148 149 152 159 170 168 168 177 178 179 186 188 183 183 182 171 164 166 175 182 187 189 188 186 183 185 186 184 183 178 175 174 169 165 159 147 132 126 120 115 113 115 119 122 122 120 120 119 119 120 120 120 120 120 119 118 117 115 113 113 113 110 104
285 215 224 291 57 32 2 56 63 89 136 152 162 185 179 147 162 136 160 196 171 182 180 153 123 104 116 129 137 142 147 151 156 161 161 162 163 166 173 177 181 178 178 178 179 187 188 182 179 180 175 170 181 187 185 191 190 189 190 189 189 188 186 183 183 180 178 175 167 148 136 138 133 122 119 122 124 125 126 125 125 126 125 125 124 124 123 123 122 121 121 121 120 118 115 113 111
200 31 195 20 68 53 30 55 54 34 107 148 155 178 164 129 146 144 205 205 177 196 198 171 173 171 156 149 151 153 158 161 166 173 172 173 173 173 172 180 189 180 176 179 179 180 184 182 176 183 190 181 187 194 190 192 193 192 192 191 192 195 193 189 190 187 185 183 169 150 152 161 153 134 128 131 130 130 130 130 129 128 127 126 126 125 124 124 125 128 131 132 130 125 118 114 114
122 62 80 18 9 53 45 48 44 17 44 132 128 133 140 108 114 160 210 218 185 209 206 183 192 183 162 156 159 161 167 168 173 181 183 184 182 181 179 181 189 185 177 176 181 182 184 187 179 180 189 188 186 192 197 194 196 197 195 195 194 197 199 195 195 193 192 189 172 163 171 177 166 150 146 143 139 136 134 134 132 129 127 126 124 121 121 128 133 135 137 137 134 128 123 118 116
83 74 73 30 354 56 67 50 30 347 350 106 117 143 139 99 97 195 217 227 185 216 114 115 131 148 150 155 159 163 172 174 179 185 190 193 189 188 183 180 189 187 179 178 181 184 189 190 185 184 187 191 185 184 201 200 196 198 196 199 197 196 199 197 199 199 198 193 181 177 180 182 175 163 158 152 146 144 143 140 136 134 132 125 119 117 126 141 142 139 138 135 131 129 125 121 117
59 90 72 32 15 79 82 56 9 337 32 103 124 133 97 114 206 210 220 232 154 108 82 72 72 119 141 150 156 165 178 180 186 189 192 195 194 195 184 179 187 182 175 181 185 187 193 190 186 184 182 195 192 180 193 202 202 205 201 202 204 199 195 197 203 204 202 196 190 190 185 184 182 172 166 161 156 156 152 147 144 140 132 123 125 141 149 149 144 139 135 130 128 127 125 121 118
94 121 98 50 53 78 73 72 7 6 46 65 57 49 97 170 213 118 228 242 161 112 99 91 90 118 136 145 160 173 181 185 192 194 194 196 196 198 192 182 184 181 175 179 187 191 194 191 191 190 182 189 196 185 188 202 212 219 214 209 208 206 202 199 203 207 206 202 198 197 190 185 184 178 172 169 164 163 159 156 152 142 134 140 158 169 158 149 142 138 134 129 127 126 124 121 118
289 112 116 94 81 87 90 100 77 51 49 21 45 59 181 135 78 355 247 249 224 133 113 110 108 120 143 152 166 177 182 187 190 194 196 200 198 197 199 189 180 184 187 186 187 190 192 193 197 201 194 190 199 197 194 202 219 229 226 218 210 208 212 207 206 210 208 207 203 200 196 188 186 182 179 175 169 165 163 165 159 148 153 167 175 172 160 151 143 138 133 129 128 126 123 120 118
60 114 123 114 101 101 120 118 91 79 68 35 57 218 161 69 44 265 243 234 201 138 126 127 127 144 167 165 172 179 183 187 187 190 193 197 199 197 198 191 184 187 190 191 192 192 193 196 197 199 199 198 202 204 203 203 217 233 235 229 216 204 207 210 211 215 212 212 206 201 201 193 188 187 183 178 173 169 168 171 168 163 169 179 181 169 159 155 146 139 133 130 130 126 122 119 118
98 111 106 107 116 119 189 132 104 90 76 62 297 266 163 89 83 253 261 208 150 132 140 145 145 173 191 183 184 183 186 189 186 184 185 189 196 197 196 192 191 191 187 188 194 193 190 194 194 194 196 200 203 202 205 204 210 235 238 235 231 213 206 208 212 215 213 214 206 201 204 197 193 191 186 181 177 174 174 176 175 174 175 181 182 168 158 154 145 138 134 133 132 128 122 119 118
122 117 99 109 131 126 199 146 137 167 79 348 306 315 249 121 197 229 209 154 147 148 162 158 168 198 199 194 193 187 189 189 184 181 181 187 192 194 195 195 192 192 191 190 195 194 193 197 198 201 203 207 213 208 206 204 203 228 236 233 238 228 215 211 215 214 205 208 208 206 207 202 200 197 188 183 183 180 179 180 179 181 181 181 179 168 158 153 146 140 136 134 132 128 122 118 118
136 150 118 135 153 152 195 151 137 187 90 321 4 319 255 182 226 229 166 158 162 163 174 168 186 208 202 195 190 188 190 183 181 186 190 191 194 194 196 200 197 196 196 195 196 196 198 204 202 206 209 210 217 214 212 207 203 226 233 224 231 232 221 212 215 213 203 203 210 210 209 207 204 199 192 187 187 185 183 183 184 186 184 180 175 169 161 155 149 143 138 134 132 128 123 119 119
148 214 127 144 176 193 188 137 128 152 77 354 62 329 269 206 221 216 142 155 157 172 194 184 189 200 200 192 181 186 189 186 186 192 198 195 196 199 200 203 203 201 199 197 198 198 200 205 203 205 209 211 214 215 212 202 201 225 227 213 215 228 225 216 213 211 203 202 207 207 207 209 206 198 196 194 193 191 186 185 187 187 184 181 174 169 164 154 149 145 139 134 130 129 124 120 120
147 161 353 170 179 176 161 122 152 160 346 288 102 215 284 256 193 150 133 160 162 190 211 202 197 190 192 190 185 190 192 195 197 197 200 198 197 199 200 201 200 199 199 198 199 200 202 206 206 209 214 218 218 213 205 194 194 216 222 212 208 214 218 217 220 215 207 206 208 208 205 209 207 199 200 202 201 196 190 188 189 187 184 180 172 169 162 152 149 146 141 135 129 128 125 121 119
159 124 288 218 183 154 141 100 157 145 320 216 142 223 274 288 142 136 142 162 178 213 225 214 207 193 186 186 189 196 196 198 201 200 200 199 198 197 196 197 196 195 197 198 198 198 204 209 210 216 221 223 221 213 203 192 190 209 220 219 216 214 209 209 217 214 208 206 206 206 205 206 207 205 205 207 203 197 193 190 190 188 183 177 172 168 160 153 150 145 142 140 132 128 126 122 120
190 182 222 205 185 171 175 355 96 115 112 200 208 254 285 272 167 170 174 177 184 215 242 229 218 208 191 184 190 195 192 193 200 200 197 196 197 196 193 193 194 192 194 197 197 197 203 210 212 218 222 221 220 215 206 194 192 208 217 221 221 216 210 208 214 215 210 208 207 210 211 208 210 210 206 204 201 196 194 192 189 187 181 176 171 165 159 156 153 147 142 141 137 133 130 126 122
194 203 240 198 172 173 171 97 109 154 156 218 216 227 263 270 239 200 196 193 182 199 229 229 225 222 205 190 188 191 191 193 199 196 195 194 194 194 192 193 194 192 194 197 198 199 204 211 213 215 216 212 214 217 209 194 195 208 214 221 223 213 210 211 217 219 219 221 223 221 214 209 210 209 204 202 200 195 194 193 188 182 178 174 170 164 161 158 155 150 143 140 141 139 135 131 127
161 177 219 202 213 232 165 126 169 180 178 230 228 226 247 263 266 249 218 198 190 203 216 220 227 228 220 203 192 193 194 200 203 194 192 192 192 192 190 193 195 194 195 196 199 201 204 211 213 209 203 201 209 219 210 193 196 209 213 219 223 219 216 214 217 218 218 223 225 218 210 207 207 204 200 199 199 196 194 191 184 179 176 172 167 162 159 156 153 150 145 142 142 142 139 136 132
77 139 197 202 171 261 118 109 139 190 164 225 235 241 248 253 262 263 242 209 200 209 217 224 231 230 227 215 203 197 196 207 203 192 190 189 190 190 189 191 193 193 194 195 198 199 201 208 209 203 197 200 210 216 205 193 198 208 212 216 217 217 215 211 212 212 210 212 211 208 206 205 204 202 198 196 197 196 192 186 180 177 174 170 166 160 157 155 153 151 149 147 144 141 140 139 137
11 52 20 350 51 64 94 105 14 336 291 239 236 249 260 257 256 261 261 252 237 226 225 230 228 225 223 219 219 209 204 209 195 186 186 185 186 187 187 188 188 189 191 194 196 197 200 205 204 201 197 198 211 213 200 195 198 201 205 209 210 210 208 204 205 204 201 202 201 202 204 201 198 198 197 194 194 193 188 182 179 175 173 172 169 164 159 156 155 154 153 153 151 145 141 143 144
19 9 22 342 99 106 70 85 154 33 43 266 275 283 273 267 262 262 264 260 255 242 234 238 235 225 215 214 223 219 205 190 174 171 174 177 180 183 184 185 185 187 189 193 195 196 199 201 202 203 198 195 206 211 201 198 202 203 204 205 206 206 205 205 208 204 199 199 199 199 201 198 193 192 193 191 191 189 184 181 179 177 176 174 171 165 160 159 159 160 158 156 155 151 148 149 149
53 345 43 352 239 113 58 45 125 112 117 269 304 312 282 275 266 257 252 244 250 247 237 241 238 226 218 212 215 213 196 167 151 147 161 171 176 179 181 183 186 190 190 192 195 195 196 198 200 202 201 197 200 207 204 201 203 206 206 207 207 205 205 210 214 210 204 200 199 198 196 194 189 185 185 187 187 186 184 181 179 178 177 175 170 165 163 163 163 166 166 161 155 152 152 155 155
166 220 78 243 233 109 64 335 243 202 160 305 308 301 276 275 269 257 249 238 243 251 248 249 238 223 224 214 203 200 191 174 162 154 161 171 174 177 181 183 187 190 191 192 193 194 195 197 198 199 204 202 196 199 204 203 202 201 203 207 209 207 208 213 213 211 207 201 198 196 192 189 184 179 180 184 183 182 182 181 179 177 177 176 174 169 168 169 170 171 171 167 161 156 156 160 159
220 203 209 240 64 78 111 51 263 216 71 351 312 304 275 264 260 262 267 230 230 243 250 256 249 233 227 220 215 210 194 174 170 172 171 173 176 180 184 185 187 189 191 193 193 195 195 198 200 200 205 204 196 198 201 203 201 198 199 201 203 203 206 208 206 205 202 197 196 193 190 187 183 178 178 181 183 183 182 182 181 178 177 177 176 174 173 174 175 175 175 173 171 166 163 166 168
237 199 268 289 61 68 72 34 6 343 333 294 352 346 295 292 288 280 314 293 229 230 237 250 255 242 221 222 227 225 208 175 170 176 176 176 179 182 184 185 188 190 193 195 195 196 196 198 200 200 202 200 198 202 203 203 203 202 199 196 196 196 197 201 203 204 200 195 192 190 189 187 183 180 177 178 182 184 184 183 183 181 179 178 178 178 177 178 178 179 180 179 178 174 167 170 177
277 269 328 338 70 70 41 25 28 5 283 251 138 114 275 297 295 271 273 265 243 214 222 242 246 226 208 210 208 203 203 189 174 168 168 173 176 178 183 186 188 191 194 194 194 196 196 198 199 200 203 199 199 205 206 206 206 205 205 203 202 201 200 204 207 207 202 195 192 190 189 188 185 182 180 180 182 184 186 186 186 185 182 180 181 182 181 183 183 182 184 183 181 179 173 173 177
251 266 306 360 82 86 73 55 83 244 314 283 174 168 260 283 258 240 242 249 242 213 229 250 244 207 185 174 169 168 169 174 170 160 158 168 175 178 181 185 189 191 191 192 193 194 196 198 200 203 205 201 201 206 207 208 208 207 206 205 206 207 208 208 207 205 201 196 192 191 191 189 187 185 183 183 183 185 188 189 188 187 185 184 186 187 187 188 186 183 185 186 184 185 184 180 178
221 259 302 74 88 95 97 61 320 316 360 315 220 175 269 272 245 228 227 228 227 219 235 248 222 138 134 131 125 114 102 115 145 157 158 163 172 178 181 184 188 190 190 191 192 194 197 199 200 202 204 203 204 207 207 209 212 211 208 205 205 206 207 207 205 202 198 196 193 192 193 192 190 188 187 187 187 188 189 190 190 189 187 188 190 192 193 192 188 186 186 186 186 190 192 188 184
204 218 90 76 84 76 73 71 32 14 332 259 204 176 251 279 250 195 197 200 206 222 237 233 135 121 125 125 123 113 89 79 108 137 145 156 168 175 179 181 183 186 190 192 192 193 196 198 199 200 203 205 207 209 209 209 212 213 211 208 204 200 200 203 200 196 194 194 193 192 194 194 192 191 191 191 190 191 191 190 191 191 190 190 192 194 195 193 190 189 189 187 189 193 194 195 196
157 170 90 68 63 59 55 65 70 41 288 260 199 187 200 286 286 165 177 198 197 212 223 140 121 129 134 138 150 146 132 124 120 112 119 141 160 169 172 174 178 183 187 190 191 192 194 195 197 198 202 207 209 211 211 210 211 213 213 209 203 199 200 199 195 193 193 194 195 194 195 195 195 195 194 193 193 193 193 192 192 192 191 192 194 195 196 194 192 191 190 188 192 196 195 198 204
93 148 118 87 12 32 29 8 58 95 254 281 299 276 200 243 274 291 255 248 214 218 203 158 157 168 162 165 172 157 149 158 152 131 122 131 150 166 169 170 175 181 184 187 190 192 193 195 197 198 202 206 210 212 212 211 211 213 213 209 203 202 204 202 199 198 197 197 199 198 196 196 197 198 198 196 196 195 194 193 192 193 192 192 193 195 195 194 194 193 191 190 194 195 194 196 199
42 165 122 106 336 9 360 298 125 224 238 268 317 352 271 243 253 252 256 259 238 229 218 160 149 166 178 177 175 160 154 162 162 154 152 153 161 175 175 172 176 182 184 187 189 192 194 197 198 199 202 206 210 212 213 215 214 213 212 209 204 205 208 209 207 207 206 204 202 199 198 199 199 201 201 200 200 199 197 196 195 195 195 195 194 195 195 195 196 195 192 192 193 192 192 194 193
187 172 137 139 168 191 237 221 207 236 246 293 324 6 265 274 285 250 241 241 223 206 214 174 147 169 186 179 170 163 163 168 171 168 167 174 178 184 185 180 181 185 187 189 190 193 194 196 198 199 203 209 211 212 214 217 217 213 212 211 207 207 210 214 215 215 214 209 204 202 202 203 203 204 204 203 202 201 200 199 198 197 197 197 196 196 197 197 197 196 194 193 193 192 193 193 192
200 192 150 170 177 180 209 184 203 242 260 301 315 316 216 237 283 246 211 241 305 297 267 256 197 162 150 157 160 160 174 178 175 175 178 187 184 184 189 189 189 189 190 191 193 195 195 195 197 199 204 210 212 212 213 215 216 214 213 212 210 211 215 219 219 218 217 210 204 204 205 205 206 205 204 204 204 202 201 200 199 199 199 199 199 198 198 197 197 197 195 194 194 195 195 194 193
219 217 174 230 219 167 141 157 168 142 357 289 245 240 224 213 269 264 234 256 286 275 265 266 264 237 137 181 190 173 182 180 175 184 188 192 187 186 190 192 194 193 192 194 195 195 196 195 197 201 206 210 212 213 213 214 215 215 215 213 212 215 218 219 217 215 214 210 206 206 207 207 206 205 205 206 206 204 203 203 202 201 201 200 200 199 199 198 197 197 195 195 196 197 198 197 193
199 164 201 228 208 98 120 279 44 100 267 267 183 252 280 304 284 266 232 238 241 234 253 257 252 247 228 238 225 189 190 183 180 191 189 189 188 190 194 195 196 195 194 196 197 198 198 198 198 201 205 209 212 213 213 215 216 216 215 213 213 216 218 218 216 214 213 210 208 208 207 207 207 207 207 208 207 206 206 206 204 202 201 201 200 199 199 199 199 198 198 198 197 198 199 196 193
118 157 218 215 25 43 116 230 343 132 250 269 181 237 274 288 275 300 92 219 220 217 233 241 245 243 236 248 239 195 189 182 184 192 189 189 189 191 195 197 198 198 198 198 200 201 203 203 203 201 202 206 210 212 213 215 216 216 214 213 215 218 220 219 218 216 215 213 211 209 206 207 209 209 210 210 209 207 206 206 205 203 202 201 200 199 199 199 199 198 198 199 199 199 196 192 191
111 165 253 101 107 264 142 171 228 197 230 268 239 244 257 226 238 293 354 231 217 212 213 217 231 231 231 248 241 184 169 173 183 190 191 192 193 194 196 199 201 200 200 201 200 202 204 205 206 206 206 207 208 210 212 214 216 217 216 215 218 222 222 221 219 217 217 216 214 211 207 208 211 211 212 212 211 208 206 206 205 204 203 201 200 200 199 199 199 198 197 197 198 198 195 190 189
32 360 346 89 142 185 177 181 191 176 204 256 271 276 258 228 223 244 244 236 222 203 194 205 222 222 222 237 229 181 167 180 185 189 199 200 196 196 197 201 204 201 200 200 199 201 204 205 207 209 210 208 206 208 210 212 213 215 217 217 219 222 223 221 219 218 218 218 216 212 208 209 211 213 213 214 212 210 207 206 206 205 203 201 199 199 199 199 198 198 198 197 195 195 195 190 186
173 275 222 192 139 116 181 266 178 159 184 239 265 276 265 241 194 207 220 228 211 181 174 199 218 218 208 196 180 161 163 180 185 188 200 201 197 198 198 200 205 205 202 200 200 202 204 206 208 209 210 208 207 207 208 209 210 212 215 216 218 221 222 221 219 218 219 219 217 212 209 211 213 214 214 214 214 212 210 208 207 206 204 202 200 199 198 199 198 197 197 196 195 193 192 189 185
180 195 198 196 183 141 175 255 222 148 178 216 213 273 274 254 148 184 195 86 87 134 156 185 197 182 140 115 120 136 152 172 185 193 196 190 190 195 196 195 198 203 203 202 202 203 204 207 208 209 211 212 210 208 207 208 208 210 214 216 217 219 221 220 217 217 217 218 216 211 210 213 215 216 216 216 215 213 211 209 207 206 204 202 201 199 198 198 197 196 194 194 194 192 190 187 184